Regional Weather Roundup
Issued by NWS Sioux Falls, SD

Home | Current Version | Previous Version | Graphics & Text | Print | Product List | Glossary Off
Versions: 1 2 3 4 5 6 7 8 9 10 11 12 13 14 15 16 17 18 19 20 21 22 23 24 25 26 27 28 29 30 31 32 33 34 35 36 37 38 39 40 41 42 43 44 45 46 47 48 49 50

000
ASUS43 KFSD 150010
RWRFSD

WEATHER ROUNDUP FOR SE SOUTH DAKOTA/SW MINNESOTA/NW IOWA
NATIONAL WEATHER SERVICE SIOUX FALLS SD
600 PM CST THU DEC 14 2017

NOTE: "FAIR" INDICATES FEW OR NO CLOUDS BELOW 12,000 FEET WITH NO
SIGNIFICANT WEATHER AND OR OBSTRUCTIONS TO VISIBILITY.


SDZ038>040-050-052>070-150100-
SOUTHEAST SOUTH DAKOTA

CITY           SKY/WX    TMP DP  RH WIND       PRES   REMARKS
BROOKINGS      CLOUDY    26  24  92 NW7         N/A  WCI  18
CHAMBERLAIN    CLOUDY    33  30  87 NW8       30.17R WCI  26
6HR MIN TEMP:  33; 6HR MAX TEMP:  37;

HURON          PTCLDY    25  24  96 N7        30.15R WCI  17
6HR MIN TEMP:  25; 6HR MAX TEMP:  35; 6HR PCP: TRACE;

MADISON        CLOUDY    28  28 100 N14       30.08R WCI  17
MITCHELL       CLOUDY    33  28  81 N10       30.15R WCI  25
6HR MIN TEMP:  33; 6HR MAX TEMP:  37; 6HR PCP: TRACE;

SIOUX FALLS    CLOUDY    32  25  75 N12       30.08R WCI  23
6HR MIN TEMP:  32; 6HR MAX TEMP:  37; 6HR PCP: TRACE;

WINNER         CLOUDY    33  27  78 N14       30.18R WCI  23
YANKTON        LGT RAIN  34  29  82 NW13      30.12R WCI  25
$$

MNZ071-072-080-081-089-090-097-098-150100-
SOUTHWEST MINNESOTA

CITY           SKY/WX    TMP DP  RH WIND       PRES   REMARKS
FAIRMONT       CLOUDY    27  20  75 NW12      30.06R WCI  17
JACKSON        CLOUDY    28  21  74 MISG      30.05R
LUVERNE        CLOUDY    32  28  86 N21       30.06R WCI  20
MARSHALL       CLOUDY    25  23  93 NW12      30.09R WCI  14
6HR MIN TEMP:  25; 6HR MAX TEMP:  28; 6HR PCP: TRACE;

MONTEVIDEO     CLOUDY    25  19  80 NW8       30.08S WCI  16
PIPESTONE      CLOUDY    27  25  93 CALM      30.05F
REDWOOD FALLS  CLOUDY    27  21  78 NW16G24   30.06S WCI  15
WINDOM           N/A     27  14  59 NW10      30.05S HAZE    WCI  17
WORTHINGTON    CLOUDY    26  24  92 N13       30.06R WCI  15
$$

IAZ001>003-012>014-020>022-031-032-NEZ013-014-SDZ071-150100-
NORTHWEST IOWA

CITY           SKY/WX    TMP DP  RH WIND       PRES   REMARKS
CHEROKEE       CLOUDY    32  28  85 CALM      30.06S
DENISON        CLOUDY    32  23  69 CALM      30.08S
ESTHERVILLE    CLOUDY    27  21  78 NW13      30.05R WCI  16
LE MARS        MIX PCPN  36  28  75 NW7       30.08R
ORANGE CITY    CLOUDY    34  30  86 NW10      30.06R WCI  26
SHELDON        CLOUDY    32  30  93 NW9       30.04R WCI  24
SIOUX CITY     CLOUDY    37  26  64 NW10      30.09R
6HR MIN TEMP:  36; 6HR MAX TEMP:  39;

SPENCER        CLOUDY    30  24  78 NW5       30.06R WCI  25
6HR MIN TEMP:  28; 6HR MAX TEMP:  33; 6HR PCP: TRACE;

STORM LAKE     MIX PCPN  32  27  80 NW6       30.05S WCI  26
$$

ABBREVIATIONS USED IN REMARKS
   TC - TEMPERATURE IN CELSIUS
  WCI - WIND CHILL INDEX
   HX - HEAT INDEX
  VSB - VISIBILITY





USA.gov is the U.S. government's official web portal to all federal, state and local government web resources and services.